Year,Month,Day,Hour,Minute,Value (Times are PST for temperature in C)
2019,03,24,00,00,6.30
2019,03,24,00,01,6.30
2019,03,24,00,02,6.30
2019,03,24,00,03,6.30
2019,03,24,00,04,6.30
2019,03,24,00,05,6.30
2019,03,24,00,06,6.30
2019,03,24,00,07,6.30
2019,03,24,00,08,6.30
2019,03,24,00,09,6.30
2019,03,24,00,10,6.20
2019,03,24,00,11,6.20
2019,03,24,00,12,6.20
2019,03,24,00,13,6.20
2019,03,24,00,14,6.20
2019,03,24,00,15,6.20
2019,03,24,00,16,6.20
2019,03,24,00,17,6.10
2019,03,24,00,18,6.10
2019,03,24,00,19,6.10
2019,03,24,00,20,6.10
2019,03,24,00,21,6.10
2019,03,24,00,22,6.10
2019,03,24,00,23,6.10
2019,03,24,00,24,6.10
2019,03,24,00,25,6.10
2019,03,24,00,26,6.10
2019,03,24,00,27,6.10
2019,03,24,00,28,6.10
2019,03,24,00,29,6.10
2019,03,24,00,30,6.10
2019,03,24,00,31,6.10
2019,03,24,00,32,6.10
2019,03,24,00,33,6.10
2019,03,24,00,34,6.10
2019,03,24,00,35,6.10
2019,03,24,00,36,6.10
2019,03,24,00,37,6.10
2019,03,24,00,38,6.10
2019,03,24,00,39,6.10
2019,03,24,00,40,6.10
2019,03,24,00,41,6.10
2019,03,24,00,42,6.10
2019,03,24,00,43,6.10
2019,03,24,00,44,6.10
2019,03,24,00,45,6.10
2019,03,24,00,46,6.10
2019,03,24,00,47,6.10
2019,03,24,00,48,6.10
2019,03,24,00,49,6.10
2019,03,24,00,50,6.10
2019,03,24,00,51,6.10
2019,03,24,00,52,6.10
2019,03,24,00,53,6.10
2019,03,24,00,54,6.10
2019,03,24,00,55,6.10
2019,03,24,00,56,6.10
2019,03,24,00,57,6.10
2019,03,24,00,58,6.10
2019,03,24,00,59,6.10
2019,03,24,01,00,6.10
2019,03,24,01,01,6.10
2019,03,24,01,02,6.10
2019,03,24,01,03,6.10
2019,03,24,01,04,6.10
2019,03,24,01,05,6.10
2019,03,24,01,06,6.10
2019,03,24,01,07,6.10
2019,03,24,01,08,6.10
2019,03,24,01,09,6.10
2019,03,24,01,10,6.10
2019,03,24,01,11,6.10
2019,03,24,01,12,6.10
2019,03,24,01,13,6.10
2019,03,24,01,14,6.10
2019,03,24,01,15,6.10
2019,03,24,01,16,6.10
2019,03,24,01,17,6.10
2019,03,24,01,18,6.10
2019,03,24,01,19,6.10
2019,03,24,01,20,6.10
2019,03,24,01,21,6.10
2019,03,24,01,22,6.10
2019,03,24,01,23,6.00
2019,03,24,01,24,6.00
2019,03,24,01,25,6.00
2019,03,24,01,26,6.00
2019,03,24,01,27,6.00
2019,03,24,01,28,6.00
2019,03,24,01,29,6.00
2019,03,24,01,30,6.00
2019,03,24,01,31,6.00
2019,03,24,01,32,5.90
2019,03,24,01,33,5.90
2019,03,24,01,34,5.90
2019,03,24,01,35,5.90
2019,03,24,01,36,5.80
2019,03,24,01,37,5.80
2019,03,24,01,38,5.70
2019,03,24,01,39,5.70
2019,03,24,01,40,5.70
2019,03,24,01,41,5.70
2019,03,24,01,42,5.60
2019,03,24,01,43,5.60
2019,03,24,01,44,5.60
2019,03,24,01,45,5.60
2019,03,24,01,46,5.60
2019,03,24,01,47,5.60
2019,03,24,01,48,5.60
2019,03,24,01,49,5.60
2019,03,24,01,50,5.50
2019,03,24,01,51,5.50
2019,03,24,01,52,5.50
2019,03,24,01,53,5.40
2019,03,24,01,54,5.40
2019,03,24,01,55,5.40
2019,03,24,01,56,5.30
2019,03,24,01,57,5.30
2019,03,24,01,58,5.30
2019,03,24,01,59,5.30
2019,03,24,02,00,5.30
2019,03,24,02,01,5.20
2019,03,24,02,02,5.20
2019,03,24,02,03,5.20
2019,03,24,02,04,5.20
2019,03,24,02,05,5.20
2019,03,24,02,06,5.20
2019,03,24,02,07,5.30
2019,03,24,02,08,5.30
2019,03,24,02,09,5.30
2019,03,24,02,10,5.30
2019,03,24,02,11,5.30
2019,03,24,02,12,5.30
2019,03,24,02,13,5.30
2019,03,24,02,14,5.40
2019,03,24,02,15,5.40
2019,03,24,02,16,5.40
2019,03,24,02,17,5.40
2019,03,24,02,18,5.40
2019,03,24,02,19,5.40
2019,03,24,02,20,5.40
2019,03,24,02,21,5.50
2019,03,24,02,22,5.50
2019,03,24,02,23,5.50
2019,03,24,02,24,5.50
2019,03,24,02,25,5.50
2019,03,24,02,26,5.50
2019,03,24,02,27,5.50
2019,03,24,02,28,5.50
2019,03,24,02,29,5.50
2019,03,24,02,30,5.50
2019,03,24,02,31,5.50
2019,03,24,02,32,5.50
2019,03,24,02,33,5.50
2019,03,24,02,34,5.50
2019,03,24,02,35,5.40
2019,03,24,02,36,5.40
2019,03,24,02,37,5.40
2019,03,24,02,38,5.40
2019,03,24,02,39,5.40
2019,03,24,02,40,5.40
2019,03,24,02,41,5.40
2019,03,24,02,42,5.40
2019,03,24,02,43,5.40
2019,03,24,02,44,5.40
2019,03,24,02,45,5.40
2019,03,24,02,46,5.40
2019,03,24,02,47,5.40
2019,03,24,02,48,5.40
2019,03,24,02,49,5.40
2019,03,24,02,50,5.40
2019,03,24,02,51,5.40
2019,03,24,02,52,5.30
2019,03,24,02,53,5.30
2019,03,24,02,54,5.30
2019,03,24,02,55,5.30
2019,03,24,02,56,5.30
2019,03,24,02,57,5.30
2019,03,24,02,58,5.30
2019,03,24,02,59,5.30
2019,03,24,03,00,5.30
2019,03,24,03,01,5.30
2019,03,24,03,02,5.30
2019,03,24,03,03,5.30
2019,03,24,03,04,5.30
2019,03,24,03,05,5.20
2019,03,24,03,06,5.20
2019,03,24,03,07,5.20
2019,03,24,03,08,5.20
2019,03,24,03,09,5.20
2019,03,24,03,10,5.20
2019,03,24,03,11,5.20
2019,03,24,03,12,5.20
2019,03,24,03,13,5.30
2019,03,24,03,14,5.30
2019,03,24,03,15,5.30
2019,03,24,03,16,5.30
2019,03,24,03,17,5.30
2019,03,24,03,18,5.30
2019,03,24,03,19,5.30
2019,03,24,03,20,5.20
2019,03,24,03,21,5.20
2019,03,24,03,22,5.20
2019,03,24,03,23,5.10
2019,03,24,03,24,5.10
2019,03,24,03,25,5.10
2019,03,24,03,26,5.10
2019,03,24,03,27,5.10
2019,03,24,03,28,5.10
2019,03,24,03,29,5.10
2019,03,24,03,30,5.00
2019,03,24,03,31,5.00
2019,03,24,03,32,4.90
2019,03,24,03,33,4.90
2019,03,24,03,34,4.90
2019,03,24,03,35,4.80
2019,03,24,03,36,4.80
2019,03,24,03,37,4.80
2019,03,24,03,38,4.80
2019,03,24,03,39,4.80
2019,03,24,03,40,4.80
2019,03,24,03,41,4.80
2019,03,24,03,42,4.80
2019,03,24,03,43,4.80
2019,03,24,03,44,4.80
2019,03,24,03,45,4.80
2019,03,24,03,46,4.80
2019,03,24,03,47,4.80
2019,03,24,03,48,4.80
2019,03,24,03,49,4.90
2019,03,24,03,50,4.90
2019,03,24,03,51,4.90
2019,03,24,03,52,4.90
2019,03,24,03,53,4.90
2019,03,24,03,54,4.90
2019,03,24,03,55,4.90
2019,03,24,03,56,4.90
2019,03,24,03,57,4.90
2019,03,24,03,58,4.90
2019,03,24,03,59,4.90
2019,03,24,04,00,4.90
2019,03,24,04,01,4.90
2019,03,24,04,02,4.80
2019,03,24,04,03,4.80
2019,03,24,04,04,4.80
2019,03,24,04,05,4.80
2019,03,24,04,06,4.80
2019,03,24,04,07,4.80
2019,03,24,04,08,4.80
2019,03,24,04,09,4.80
2019,03,24,04,10,4.80
2019,03,24,04,11,4.80
2019,03,24,04,12,4.80
2019,03,24,04,13,4.80
2019,03,24,04,14,4.80
2019,03,24,04,15,4.80
2019,03,24,04,16,4.80
2019,03,24,04,17,4.90
2019,03,24,04,18,4.90
2019,03,24,04,19,4.90
2019,03,24,04,20,4.80
2019,03,24,04,21,4.80
2019,03,24,04,22,4.80
2019,03,24,04,23,4.80
2019,03,24,04,24,4.80
2019,03,24,04,25,4.80
2019,03,24,04,26,4.70
2019,03,24,04,27,4.70
2019,03,24,04,28,4.70
2019,03,24,04,29,4.70
2019,03,24,04,30,4.70
2019,03,24,04,31,4.70
2019,03,24,04,32,4.70
2019,03,24,04,33,4.70
2019,03,24,04,34,4.60
2019,03,24,04,35,4.60
2019,03,24,04,36,4.60
2019,03,24,04,37,4.60
2019,03,24,04,38,4.60
2019,03,24,04,39,4.60
2019,03,24,04,40,4.60
2019,03,24,04,41,4.60
2019,03,24,04,42,4.60
2019,03,24,04,43,4.60
2019,03,24,04,44,4.60
2019,03,24,04,45,4.60
2019,03,24,04,46,4.60
2019,03,24,04,47,4.60
2019,03,24,04,48,4.60
2019,03,24,04,49,4.60
2019,03,24,04,50,4.60
2019,03,24,04,51,4.60
2019,03,24,04,52,4.60
2019,03,24,04,53,4.50
2019,03,24,04,54,4.40
2019,03,24,04,55,4.40
2019,03,24,04,56,4.40
2019,03,24,04,57,4.40
2019,03,24,04,58,4.30
2019,03,24,04,59,4.30
2019,03,24,05,00,4.30
2019,03,24,05,01,4.30
2019,03,24,05,02,4.40
2019,03,24,05,03,4.40
2019,03,24,05,04,4.40
2019,03,24,05,05,4.40
2019,03,24,05,06,4.40
2019,03,24,05,07,4.40
2019,03,24,05,08,4.30
2019,03,24,05,09,4.30
2019,03,24,05,10,4.30
2019,03,24,05,11,4.40
2019,03,24,05,12,4.40
2019,03,24,05,13,4.50
2019,03,24,05,14,4.50
2019,03,24,05,15,4.60
2019,03,24,05,16,4.60
2019,03,24,05,17,4.60
2019,03,24,05,18,4.70
2019,03,24,05,19,4.70
2019,03,24,05,20,4.70
2019,03,24,05,21,4.70
2019,03,24,05,22,4.70
2019,03,24,05,23,4.70
2019,03,24,05,24,4.70
2019,03,24,05,25,4.70
2019,03,24,05,26,4.70
2019,03,24,05,27,4.70
2019,03,24,05,28,4.70
2019,03,24,05,29,4.70
2019,03,24,05,30,4.70
2019,03,24,05,31,4.60
2019,03,24,05,32,4.60
2019,03,24,05,33,4.60
2019,03,24,05,34,4.60
2019,03,24,05,35,4.60
2019,03,24,05,36,4.50
2019,03,24,05,37,4.50
2019,03,24,05,38,4.50
2019,03,24,05,39,4.40
2019,03,24,05,40,4.40
2019,03,24,05,41,4.40
2019,03,24,05,42,4.40
2019,03,24,05,43,4.40
2019,03,24,05,44,4.40
2019,03,24,05,45,4.40
2019,03,24,05,46,4.40
2019,03,24,05,47,4.40
2019,03,24,05,48,4.40
2019,03,24,05,49,4.40
2019,03,24,05,50,4.40
2019,03,24,05,51,4.40
2019,03,24,05,52,4.40
2019,03,24,05,53,4.40
2019,03,24,05,54,4.40
2019,03,24,05,55,4.40
2019,03,24,05,56,4.40
2019,03,24,05,57,4.40
2019,03,24,05,58,4.30
2019,03,24,05,59,4.30
2019,03,24,06,00,4.30
2019,03,24,06,01,4.20
2019,03,24,06,02,4.20
2019,03,24,06,03,4.20
2019,03,24,06,04,4.20
2019,03,24,06,05,4.20
2019,03,24,06,06,4.20
2019,03,24,06,07,4.30
2019,03,24,06,08,4.20
2019,03,24,06,09,4.20
2019,03,24,06,10,4.20
2019,03,24,06,11,4.20
2019,03,24,06,12,4.20
2019,03,24,06,13,4.20
2019,03,24,06,14,4.20
2019,03,24,06,15,4.20
2019,03,24,06,16,4.20
2019,03,24,06,17,4.20
2019,03,24,06,18,4.20
2019,03,24,06,19,4.20
2019,03,24,06,20,4.20
2019,03,24,06,21,4.20
2019,03,24,06,22,4.20
2019,03,24,06,23,4.20
2019,03,24,06,24,4.20
2019,03,24,06,25,4.20
2019,03,24,06,26,4.20
2019,03,24,06,27,4.20
2019,03,24,06,28,4.20
2019,03,24,06,29,4.20
2019,03,24,06,30,4.20
2019,03,24,06,31,4.20
2019,03,24,06,32,4.20
2019,03,24,06,33,4.20
2019,03,24,06,34,4.20
2019,03,24,06,35,4.20
2019,03,24,06,36,4.20
2019,03,24,06,37,4.20
2019,03,24,06,38,4.20
2019,03,24,06,39,4.20
2019,03,24,06,40,4.20
2019,03,24,06,41,4.20
2019,03,24,06,42,4.20
2019,03,24,06,43,4.20
2019,03,24,06,44,4.20
2019,03,24,06,45,4.20
2019,03,24,06,46,4.20
2019,03,24,06,47,4.20
2019,03,24,06,48,4.20
2019,03,24,06,49,4.20
2019,03,24,06,50,4.20
2019,03,24,06,51,4.20
2019,03,24,06,52,4.20
2019,03,24,06,53,4.20
2019,03,24,06,54,4.20
2019,03,24,06,55,4.20
2019,03,24,06,56,4.20
2019,03,24,06,57,4.20
2019,03,24,06,58,4.20
2019,03,24,06,59,4.20
2019,03,24,07,00,4.20
2019,03,24,07,01,4.20
2019,03,24,07,02,4.20
2019,03,24,07,03,4.20
2019,03,24,07,04,4.20
2019,03,24,07,05,4.20
2019,03,24,07,06,4.20
2019,03,24,07,07,4.20
2019,03,24,07,08,4.20
2019,03,24,07,09,4.20
2019,03,24,07,10,4.20
2019,03,24,07,11,4.10
2019,03,24,07,12,4.10
2019,03,24,07,13,4.10
2019,03,24,07,14,4.10
2019,03,24,07,15,4.10
2019,03,24,07,16,4.10
2019,03,24,07,17,4.10
2019,03,24,07,18,4.10
2019,03,24,07,19,4.10
2019,03,24,07,20,4.10
2019,03,24,07,21,4.10
2019,03,24,07,22,4.10
2019,03,24,07,23,4.10
2019,03,24,07,24,4.10
2019,03,24,07,25,4.10
2019,03,24,07,26,4.10
2019,03,24,07,27,4.10
2019,03,24,07,28,4.10
2019,03,24,07,29,4.10
2019,03,24,07,30,4.10
2019,03,24,07,31,4.10
2019,03,24,07,32,4.10
2019,03,24,07,33,4.10
2019,03,24,07,34,4.10
2019,03,24,07,35,4.10
2019,03,24,07,36,4.10
2019,03,24,07,37,4.10
2019,03,24,07,38,4.10
2019,03,24,07,39,4.10
2019,03,24,07,40,4.10
2019,03,24,07,41,4.10
2019,03,24,07,42,4.10
2019,03,24,07,43,4.10
2019,03,24,07,44,4.10
2019,03,24,07,45,4.10
2019,03,24,07,46,4.10
2019,03,24,07,47,4.00
2019,03,24,07,48,4.00
2019,03,24,07,49,4.00
2019,03,24,07,50,4.00
2019,03,24,07,51,4.00
2019,03,24,07,52,4.00
2019,03,24,07,53,4.00
2019,03,24,07,54,4.00
2019,03,24,07,55,4.00
2019,03,24,07,56,4.00
2019,03,24,07,57,4.00
2019,03,24,07,58,4.00
2019,03,24,07,59,4.00
2019,03,24,08,00,4.00
2019,03,24,08,01,4.00
2019,03,24,08,02,3.90
2019,03,24,08,03,3.90
2019,03,24,08,04,3.90
2019,03,24,08,05,3.90
2019,03,24,08,06,3.90
2019,03,24,08,07,3.90
2019,03,24,08,08,3.90
2019,03,24,08,09,3.90
2019,03,24,08,10,3.90
2019,03,24,08,11,3.90
2019,03,24,08,12,3.90
2019,03,24,08,13,3.90
2019,03,24,08,14,3.90
2019,03,24,08,15,3.90
2019,03,24,08,16,3.90
2019,03,24,08,17,3.90
2019,03,24,08,18,3.90
2019,03,24,08,19,3.90
2019,03,24,08,20,3.90
2019,03,24,08,21,4.00
2019,03,24,08,22,4.00
2019,03,24,08,23,4.10
2019,03,24,08,24,4.10
2019,03,24,08,25,4.10
2019,03,24,08,26,4.20
2019,03,24,08,27,4.20
2019,03,24,08,28,4.20
2019,03,24,08,29,4.20
2019,03,24,08,30,4.20
2019,03,24,08,31,4.20
2019,03,24,08,32,4.10
2019,03,24,08,33,4.10
2019,03,24,08,34,4.10
2019,03,24,08,35,4.10
2019,03,24,08,36,4.10
2019,03,24,08,37,4.20
2019,03,24,08,38,4.20
2019,03,24,08,39,4.20
2019,03,24,08,40,4.20
2019,03,24,08,41,4.20
2019,03,24,08,42,4.30
2019,03,24,08,43,4.30
2019,03,24,08,44,4.30
2019,03,24,08,45,4.40
2019,03,24,08,46,4.50
2019,03,24,08,47,4.50
2019,03,24,08,48,4.60
2019,03,24,08,49,4.60
2019,03,24,08,50,4.70
2019,03,24,08,51,4.80
2019,03,24,08,52,4.80
2019,03,24,08,53,4.80
2019,03,24,08,54,4.90
2019,03,24,08,55,4.90
2019,03,24,08,56,4.90
2019,03,24,08,57,5.00
2019,03,24,08,58,5.00
2019,03,24,08,59,5.00
2019,03,24,09,00,5.10
2019,03,24,09,01,5.10
2019,03,24,09,02,5.10
2019,03,24,09,03,5.10
2019,03,24,09,04,5.20
2019,03,24,09,05,5.20
2019,03,24,09,06,5.20
2019,03,24,09,07,5.30
2019,03,24,09,08,5.30
2019,03,24,09,09,5.30
2019,03,24,09,10,5.30
2019,03,24,09,11,5.40
2019,03,24,09,12,5.40
2019,03,24,09,13,5.40
2019,03,24,09,14,5.50
2019,03,24,09,15,5.50
2019,03,24,09,16,5.50
2019,03,24,09,17,5.50
2019,03,24,09,18,5.50
2019,03,24,09,19,5.60
2019,03,24,09,20,5.60
2019,03,24,09,21,5.60
2019,03,24,09,22,5.60
2019,03,24,09,23,5.60
2019,03,24,09,24,5.60
2019,03,24,09,25,5.70
2019,03,24,09,26,5.80
2019,03,24,09,27,5.80
2019,03,24,09,28,5.90
2019,03,24,09,29,5.90
2019,03,24,09,30,6.00
2019,03,24,09,31,6.10
2019,03,24,09,32,6.10
2019,03,24,09,33,6.20
2019,03,24,09,34,6.20
2019,03,24,09,35,6.30
2019,03,24,09,36,6.30
2019,03,24,09,37,6.40
2019,03,24,09,38,6.40
2019,03,24,09,39,6.40
2019,03,24,09,40,6.50
2019,03,24,09,41,6.50
2019,03,24,09,42,6.40
2019,03,24,09,43,6.50
2019,03,24,09,44,6.50
2019,03,24,09,45,6.50
2019,03,24,09,46,6.60
2019,03,24,09,47,6.60
2019,03,24,09,48,6.60
2019,03,24,09,49,6.60
2019,03,24,09,50,6.60
2019,03,24,09,51,6.60
2019,03,24,09,52,6.70
2019,03,24,09,53,6.70
2019,03,24,09,54,6.70
2019,03,24,09,55,6.70
2019,03,24,09,56,6.70
2019,03,24,09,57,6.80
2019,03,24,09,58,6.80
2019,03,24,09,59,6.80
2019,03,24,10,00,6.80
2019,03,24,10,01,6.80
2019,03,24,10,02,6.90
2019,03,24,10,03,6.90
2019,03,24,10,04,6.90
2019,03,24,10,05,7.00
2019,03,24,10,06,7.00
2019,03,24,10,07,7.00
2019,03,24,10,08,7.00
2019,03,24,10,09,7.00
2019,03,24,10,10,7.10
2019,03,24,10,11,7.10
2019,03,24,10,12,7.20
2019,03,24,10,13,7.20
2019,03,24,10,14,7.20
2019,03,24,10,15,7.20
2019,03,24,10,16,7.20
2019,03,24,10,17,7.30
2019,03,24,10,18,7.30
2019,03,24,10,19,7.30
2019,03,24,10,20,7.40
2019,03,24,10,21,7.40
2019,03,24,10,22,7.50
2019,03,24,10,23,7.50
2019,03,24,10,24,7.60
2019,03,24,10,25,7.60
2019,03,24,10,26,7.70
2019,03,24,10,27,7.70
2019,03,24,10,28,7.70
2019,03,24,10,29,7.80
2019,03,24,10,30,7.90
2019,03,24,10,31,7.90
2019,03,24,10,32,8.00
2019,03,24,10,33,8.10
2019,03,24,10,34,8.20
2019,03,24,10,35,8.20
2019,03,24,10,36,8.30
2019,03,24,10,37,8.30
2019,03,24,10,38,8.30
2019,03,24,10,39,8.30
2019,03,24,10,40,8.30
2019,03,24,10,41,8.30
2019,03,24,10,42,8.40
2019,03,24,10,43,8.40
2019,03,24,10,44,8.40
2019,03,24,10,45,8.40
2019,03,24,10,46,8.50
2019,03,24,10,47,8.50
2019,03,24,10,48,8.60
2019,03,24,10,49,8.70
2019,03,24,10,50,8.70
2019,03,24,10,51,8.80
2019,03,24,10,52,8.80
2019,03,24,10,53,8.80
2019,03,24,10,54,8.80
2019,03,24,10,55,8.80
2019,03,24,10,56,8.80
2019,03,24,10,57,8.90
2019,03,24,10,58,8.90
2019,03,24,10,59,8.90
2019,03,24,11,00,9.00
2019,03,24,11,01,9.10
2019,03,24,11,02,9.10
2019,03,24,11,03,9.20
2019,03,24,11,04,9.20
2019,03,24,11,05,9.20
2019,03,24,11,06,9.20
2019,03,24,11,07,9.20
2019,03,24,11,08,9.20
2019,03,24,11,09,9.20
2019,03,24,11,10,9.20
2019,03,24,11,11,9.20
2019,03,24,11,12,9.20
2019,03,24,11,13,9.20
2019,03,24,11,14,9.20
2019,03,24,11,15,9.20
2019,03,24,11,16,9.20
2019,03,24,11,17,9.20
2019,03,24,11,18,9.30
2019,03,24,11,19,9.30
2019,03,24,11,20,9.30
2019,03,24,11,21,9.30
2019,03,24,11,22,9.30
2019,03,24,11,23,9.30
2019,03,24,11,24,9.30
2019,03,24,11,25,9.30
2019,03,24,11,26,9.20
2019,03,24,11,27,9.20
2019,03,24,11,28,9.30
2019,03,24,11,29,9.30
2019,03,24,11,30,9.30
2019,03,24,11,31,9.30
2019,03,24,11,32,9.40
2019,03,24,11,33,9.40
2019,03,24,11,34,9.50
2019,03,24,11,35,9.50
2019,03,24,11,36,9.60
2019,03,24,11,37,9.70
2019,03,24,11,38,9.70
2019,03,24,11,39,9.80
2019,03,24,11,40,9.90
2019,03,24,11,41,9.90
2019,03,24,11,42,10.00
2019,03,24,11,43,10.00
2019,03,24,11,44,10.10
2019,03,24,11,45,10.10
2019,03,24,11,46,10.10
2019,03,24,11,47,10.10
2019,03,24,11,48,10.20
2019,03,24,11,49,10.20
2019,03,24,11,50,10.20
2019,03,24,11,51,10.20
2019,03,24,11,52,10.20
2019,03,24,11,53,10.30
2019,03,24,11,54,10.30
2019,03,24,11,55,10.30
2019,03,24,11,56,10.30
2019,03,24,11,57,10.30
2019,03,24,11,58,10.40
2019,03,24,11,59,10.50
2019,03,24,12,00,10.60
2019,03,24,12,01,10.60
2019,03,24,12,02,10.70
2019,03,24,12,03,10.70
2019,03,24,12,04,10.70
2019,03,24,12,05,10.70
2019,03,24,12,06,10.70
2019,03,24,12,07,10.70
2019,03,24,12,08,10.70
2019,03,24,12,09,10.70
2019,03,24,12,10,10.70
2019,03,24,12,11,10.80
2019,03,24,12,12,10.80
2019,03,24,12,13,10.90
2019,03,24,12,14,11.00
2019,03,24,12,15,11.00
2019,03,24,12,16,11.10
2019,03,24,12,17,11.10
2019,03,24,12,18,11.10
2019,03,24,12,19,11.10
2019,03,24,12,20,11.20
2019,03,24,12,21,11.20
2019,03,24,12,22,11.20
2019,03,24,12,23,11.20
2019,03,24,12,24,11.20
2019,03,24,12,25,11.20
2019,03,24,12,26,11.20
2019,03,24,12,27,11.20
2019,03,24,12,28,11.20
2019,03,24,12,29,11.20
2019,03,24,12,30,11.30
2019,03,24,12,31,11.30
2019,03,24,12,32,11.30
2019,03,24,12,33,11.30
2019,03,24,12,34,11.30
2019,03,24,12,35,11.30
2019,03,24,12,36,11.30
2019,03,24,12,37,11.30
2019,03,24,12,38,11.30
2019,03,24,12,39,11.30
2019,03,24,12,40,11.30
2019,03,24,12,41,11.40
2019,03,24,12,42,11.50
2019,03,24,12,43,11.60
2019,03,24,12,44,11.60
2019,03,24,12,45,11.70
2019,03,24,12,46,11.70
2019,03,24,12,47,11.80
2019,03,24,12,48,11.80
2019,03,24,12,49,11.80
2019,03,24,12,50,11.80
2019,03,24,12,51,11.80
2019,03,24,12,52,11.80
2019,03,24,12,53,11.80
2019,03,24,12,54,11.90
2019,03,24,12,55,11.90
2019,03,24,12,56,12.00
2019,03,24,12,57,12.10
2019,03,24,12,58,12.10
2019,03,24,12,59,12.20
2019,03,24,13,00,12.20
2019,03,24,13,01,12.20
2019,03,24,13,02,12.20
2019,03,24,13,03,12.20
2019,03,24,13,04,12.20
2019,03,24,13,05,12.20
2019,03,24,13,06,12.20
2019,03,24,13,07,12.30
2019,03,24,13,08,12.30
2019,03,24,13,09,12.30
2019,03,24,13,10,12.30
2019,03,24,13,11,12.40
2019,03,24,13,12,12.40
2019,03,24,13,13,12.50
2019,03,24,13,14,12.60
2019,03,24,13,15,12.60
2019,03,24,13,16,12.60
2019,03,24,13,17,12.60
2019,03,24,13,18,12.60
2019,03,24,13,19,12.60
2019,03,24,13,20,12.70
2019,03,24,13,21,12.70
2019,03,24,13,22,12.70
2019,03,24,13,23,12.70
2019,03,24,13,24,12.80
2019,03,24,13,25,12.80
2019,03,24,13,26,12.80
2019,03,24,13,27,12.90
2019,03,24,13,28,12.90
2019,03,24,13,29,13.00
2019,03,24,13,30,12.90
2019,03,24,13,31,12.90
2019,03,24,13,32,12.90
2019,03,24,13,33,12.90
2019,03,24,13,34,13.00
2019,03,24,13,35,13.00
2019,03,24,13,36,13.00
2019,03,24,13,37,13.00
2019,03,24,13,38,13.00
2019,03,24,13,39,13.00
2019,03,24,13,40,12.90
2019,03,24,13,41,12.90
2019,03,24,13,42,12.90
2019,03,24,13,43,13.00
2019,03,24,13,44,13.10
2019,03,24,13,45,13.20
2019,03,24,13,46,13.20
2019,03,24,13,47,13.20
2019,03,24,13,48,13.30
2019,03,24,13,49,13.30
2019,03,24,13,50,13.30
2019,03,24,13,51,13.30
2019,03,24,13,52,13.30
2019,03,24,13,53,13.20
2019,03,24,13,54,13.20
2019,03,24,13,55,13.20
2019,03,24,13,56,13.20
2019,03,24,13,57,13.20
2019,03,24,13,58,13.20
2019,03,24,13,59,13.20
2019,03,24,14,00,13.20
2019,03,24,14,01,13.30
2019,03,24,14,02,13.30
2019,03,24,14,03,13.30
2019,03,24,14,04,13.40
2019,03,24,14,05,13.50
2019,03,24,14,06,13.50
2019,03,24,14,07,13.60
2019,03,24,14,08,13.70
2019,03,24,14,09,13.70
2019,03,24,14,10,13.70
2019,03,24,14,11,13.80
2019,03,24,14,12,13.90
2019,03,24,14,13,13.90
2019,03,24,14,14,14.00
2019,03,24,14,15,14.00
2019,03,24,14,16,14.00
2019,03,24,14,17,14.10
2019,03,24,14,18,14.10
2019,03,24,14,19,14.00
2019,03,24,14,20,14.10
2019,03,24,14,21,14.10
2019,03,24,14,22,14.10
2019,03,24,14,23,14.10
2019,03,24,14,24,14.00
2019,03,24,14,25,13.90
2019,03,24,14,26,13.80
2019,03,24,14,27,13.80
2019,03,24,14,28,13.80
2019,03,24,14,29,13.70
2019,03,24,14,30,13.60
2019,03,24,14,31,13.60
2019,03,24,14,32,13.60
2019,03,24,14,33,13.50
2019,03,24,14,34,13.50
2019,03,24,14,35,13.50
2019,03,24,14,36,13.60
2019,03,24,14,37,13.60
2019,03,24,14,38,13.70
2019,03,24,14,39,13.70
2019,03,24,14,40,13.70
2019,03,24,14,41,13.70
2019,03,24,14,42,13.70
2019,03,24,14,43,13.80
2019,03,24,14,44,13.80
2019,03,24,14,45,13.80
2019,03,24,14,46,13.80
2019,03,24,14,47,13.80
2019,03,24,14,48,13.80
2019,03,24,14,49,13.80
2019,03,24,14,50,13.90
2019,03,24,14,51,13.90
2019,03,24,14,52,13.90
2019,03,24,14,53,13.90
2019,03,24,14,54,14.00
2019,03,24,14,55,14.00
2019,03,24,14,56,14.00
2019,03,24,14,57,14.00
2019,03,24,14,58,14.10
2019,03,24,14,59,14.10
2019,03,24,15,00,14.20
2019,03,24,15,01,14.20
2019,03,24,15,02,14.30
2019,03,24,15,03,14.30
2019,03,24,15,04,14.30
2019,03,24,15,05,14.30
2019,03,24,15,06,14.30
2019,03,24,15,07,14.30
2019,03,24,15,08,14.30
2019,03,24,15,09,14.30
2019,03,24,15,10,14.30
2019,03,24,15,11,14.30
2019,03,24,15,12,14.30
2019,03,24,15,13,14.30
2019,03,24,15,14,14.30
2019,03,24,15,15,14.30
2019,03,24,15,16,14.30
2019,03,24,15,17,14.30
2019,03,24,15,18,14.40
2019,03,24,15,19,14.40
2019,03,24,15,20,14.50
2019,03,24,15,21,14.50
2019,03,24,15,22,14.40
2019,03,24,15,23,14.40
2019,03,24,15,24,14.40
2019,03,24,15,25,14.40
2019,03,24,15,26,14.50
2019,03,24,15,27,14.60
2019,03,24,15,28,14.70
2019,03,24,15,29,14.70
2019,03,24,15,30,14.70
2019,03,24,15,31,14.80
2019,03,24,15,32,14.80
2019,03,24,15,33,14.80
2019,03,24,15,34,14.80
2019,03,24,15,35,14.80
2019,03,24,15,36,14.80
2019,03,24,15,37,14.90
2019,03,24,15,38,14.90
2019,03,24,15,39,14.90
2019,03,24,15,40,14.90
2019,03,24,15,41,15.00
2019,03,24,15,42,15.00
2019,03,24,15,43,15.00
2019,03,24,15,44,15.10
2019,03,24,15,45,15.20
2019,03,24,15,46,15.30
2019,03,24,15,47,15.30
2019,03,24,15,48,15.40
2019,03,24,15,49,15.40
2019,03,24,15,50,15.40
2019,03,24,15,51,15.50
2019,03,24,15,52,15.50
2019,03,24,15,53,15.50
2019,03,24,15,54,15.50
2019,03,24,15,55,15.50
2019,03,24,15,56,15.40
2019,03,24,15,57,15.40
2019,03,24,15,58,15.30
2019,03,24,15,59,15.30
2019,03,24,16,00,15.30
2019,03,24,16,01,15.30
2019,03,24,16,02,15.30
2019,03,24,16,03,15.30
2019,03,24,16,04,15.30
2019,03,24,16,05,15.20
2019,03,24,16,06,15.20
2019,03,24,16,07,15.00
2019,03,24,16,08,14.80
2019,03,24,16,09,14.70
2019,03,24,16,10,14.50
2019,03,24,16,11,14.30
2019,03,24,16,12,14.20
2019,03,24,16,13,14.10
2019,03,24,16,14,14.00
2019,03,24,16,15,13.90
2019,03,24,16,16,13.80
2019,03,24,16,17,13.80
2019,03,24,16,18,13.80
2019,03,24,16,19,13.80
2019,03,24,16,20,13.80
2019,03,24,16,21,13.80
2019,03,24,16,22,13.80
2019,03,24,16,23,13.90
2019,03,24,16,24,14.00
2019,03,24,16,25,14.10
2019,03,24,16,26,14.10
2019,03,24,16,27,14.20
2019,03,24,16,28,14.30
2019,03,24,16,29,14.30
2019,03,24,16,30,14.30
2019,03,24,16,31,14.30
2019,03,24,16,32,14.30
2019,03,24,16,33,14.40
2019,03,24,16,34,14.40
2019,03,24,16,35,14.50
2019,03,24,16,36,14.50
2019,03,24,16,37,14.50
2019,03,24,16,38,14.50
2019,03,24,16,39,14.50
2019,03,24,16,40,14.40
2019,03,24,16,41,14.30
2019,03,24,16,42,14.20
2019,03,24,16,43,14.20
2019,03,24,16,44,14.10
2019,03,24,16,45,14.10
2019,03,24,16,46,14.10
2019,03,24,16,47,14.10
2019,03,24,16,48,14.20
2019,03,24,16,49,14.20
2019,03,24,16,50,14.20
2019,03,24,16,51,14.10
2019,03,24,16,52,14.10
2019,03,24,16,53,14.10
2019,03,24,16,54,14.10
2019,03,24,16,55,14.10
2019,03,24,16,56,14.10
2019,03,24,16,57,14.00
2019,03,24,16,58,14.00
2019,03,24,16,59,14.00
2019,03,24,17,00,13.90
2019,03,24,17,01,13.90
2019,03,24,17,02,13.90
2019,03,24,17,03,13.90
2019,03,24,17,04,13.90
2019,03,24,17,05,13.90
2019,03,24,17,06,13.90
2019,03,24,17,07,13.80
2019,03,24,17,08,13.80
2019,03,24,17,09,13.80
2019,03,24,17,10,13.80
2019,03,24,17,11,13.80
2019,03,24,17,12,13.80
2019,03,24,17,13,13.80
2019,03,24,17,14,13.70
2019,03,24,17,15,13.70
2019,03,24,17,16,13.60
2019,03,24,17,17,13.60
2019,03,24,17,18,13.60
2019,03,24,17,19,13.60
2019,03,24,17,20,13.60
2019,03,24,17,21,13.60
2019,03,24,17,22,13.60
2019,03,24,17,23,13.50
2019,03,24,17,24,13.50
2019,03,24,17,25,13.40
2019,03,24,17,26,13.40
2019,03,24,17,27,13.30
2019,03,24,17,28,13.30
2019,03,24,17,29,13.30
2019,03,24,17,30,13.20
2019,03,24,17,31,13.20
2019,03,24,17,32,13.20
2019,03,24,17,33,13.20
2019,03,24,17,34,13.20
2019,03,24,17,35,13.20
2019,03,24,17,36,13.20
2019,03,24,17,37,13.30
2019,03,24,17,38,13.30
2019,03,24,17,39,13.30
2019,03,24,17,40,13.30
2019,03,24,17,41,13.30
2019,03,24,17,42,13.30
2019,03,24,17,43,13.30
2019,03,24,17,44,13.30
2019,03,24,17,45,13.30
2019,03,24,17,46,13.30
2019,03,24,17,47,13.30
2019,03,24,17,48,13.30
2019,03,24,17,49,13.30